When you browse on this site, cookies collect data to enhance your experience and personalize the content and advertising you see.
Visit our Privacy Policy to learn more. By continuing to use the site, you agree to this use of cookies and data.
  • In Slovakia
  • List of Countries
  • For 7 days
  • Water Temperature
  • Weather Map
  • Weather Widgets
  • user-avatar
    Login

    Hourly Weather Mingachevir

    Today, 25 January, Saturday

    Time Temperature Precipitation Wind Pressure Humidity
    00:00 +1°C° 0 mm 3 mps 762 mmHg 54%
    01:00 +1°C° 0 mm 3 mps 762 mmHg 55%
    02:00 0°C° 0 mm 4 mps 763 mmHg 56%
    03:00 -1°C° 0 mm 4 mps 763 mmHg 57%
    04:00 0°C° 0 mm 3 mps 763 mmHg 60%
    05:00 +1°C° 0 mm 2 mps 763 mmHg 62%
    06:00 -1°C° 0 mm 2 mps 763 mmHg 65%
    07:00 +1°C° 0 mm 2 mps 763 mmHg 62%
    08:00 +1°C° 0 mm 2 mps 763 mmHg 59%
    09:00 +3°C° 0 mm 1 mps 763 mmHg 59%
    10:00 +3°C° 0 mm 2 mps 763 mmHg 54%
    11:00 +3°C° 0 mm 3 mps 762 mmHg 48%
    12:00 +4°C° 0 mm 4 mps 762 mmHg 43%
    13:00 +5°C° 0 mm 4 mps 761 mmHg 41%
    14:00 +5°C° 0 mm 4 mps 760 mmHg 39%
    15:00 +5°C° 0 mm 4 mps 759 mmHg 37%
    16:00 +4°C° 0 mm 4 mps 759 mmHg 38%
    17:00 +3°C° 0 mm 3 mps 759 mmHg 40%
    18:00 +4°C° 0 mm 2 mps 759 mmHg 42%
    19:00 +3°C° 0 mm 2 mps 759 mmHg 44%
    20:00 +3°C° 0 mm 2 mps 759 mmHg 46%
    21:00 +3°C° 0 mm 2 mps 759 mmHg 49%
    22:00 +3°C° 0 mm 2 mps 758 mmHg 50%
    23:00 +2°C° 0 mm 2 mps 758 mmHg 51%

    Tomorrow, 26 January, Sunday

    Time Temperature Precipitation Wind Pressure Humidity
    00:00 +2°C° 0 mm 2 mps 757 mmHg 52%
    01:00 +2°C° 0 mm 2 mps 757 mmHg 50%
    02:00 +2°C° 0 mm 2 mps 757 mmHg 48%
    03:00 +2°C° 0 mm 2 mps 756 mmHg 47%
    04:00 +2°C° 0 mm 2 mps 756 mmHg 47%
    05:00 0°C° 0 mm 3 mps 756 mmHg 47%
    06:00 0°C° 0 mm 3 mps 756 mmHg 47%
    07:00 +1°C° 0 mm 3 mps 756 mmHg 44%
    08:00 +3°C° 0 mm 2 mps 756 mmHg 41%
    09:00 +5°C° 0 mm 2 mps 756 mmHg 38%
    10:00 +5°C° 0 mm 3 mps 756 mmHg 34%
    11:00 +8°C° 0 mm 3 mps 755 mmHg 30%
    12:00 +8°C° 0 mm 4 mps 755 mmHg 27%
    13:00 +10°C° 0 mm 4 mps 755 mmHg 26%
    14:00 +11°C° 0 mm 4 mps 755 mmHg 24%
    15:00 +11°C° 0 mm 4 mps 755 mmHg 23%
    16:00 +10°C° 0 mm 4 mps 755 mmHg 27%
    17:00 +9°C° 0 mm 3 mps 756 mmHg 30%
    18:00 +8°C° 0 mm 3 mps 756 mmHg 34%
    19:00 +7°C° 0 mm 3 mps 757 mmHg 34%
    20:00 +7°C° 0 mm 3 mps 757 mmHg 34%
    21:00 +7°C° 0 mm 3 mps 758 mmHg 34%
    22:00 +5°C° 0 mm 3 mps 758 mmHg 36%
    23:00 +5°C° 0 mm 3 mps 759 mmHg 37%

    Day after tomorrow, 27 January, Monday

    Time Temperature Precipitation Wind Pressure Humidity
    00:00 +5°C° 0 mm 3 mps 759 mmHg 39%
    01:00 +4°C° 0 mm 3 mps 759 mmHg 44%
    02:00 +4°C° 0 mm 2 mps 760 mmHg 48%
    03:00 +5°C° 0 mm 1 mps 760 mmHg 52%
    04:00 +4°C° 0 mm 1 mps 761 mmHg 53%
    05:00 +3°C° 0 mm 2 mps 761 mmHg 55%
    06:00 +3°C° 0 mm 2 mps 761 mmHg 56%
    07:00 +3°C° 0 mm 2 mps 762 mmHg 57%
    08:00 +4°C° 0 mm 2 mps 762 mmHg 58%
    09:00 +5°C° 0 mm 2 mps 763 mmHg 59%
    10:00 +6°C° 0 mm 2 mps 762 mmHg 59%
    11:00 +7°C° 0 mm 2 mps 762 mmHg 59%
    12:00 +8°C° 0 mm 2 mps 761 mmHg 59%
    13:00 +9°C° 0 mm 1 mps 761 mmHg 58%
    14:00 +9°C° 0 mm 1 mps 761 mmHg 56%
    15:00 +9°C° 0 mm 1 mps 760 mmHg 54%
    16:00 +9°C° 0 mm 1 mps 760 mmHg 58%
    17:00 +7°C° 0 mm 0 mps 760 mmHg 62%
    18:00 +6°C° 0 mm 0 mps 760 mmHg 67%
    19:00 +5°C° 0 mm 0 mps 760 mmHg 67%
    20:00 +6°C° 0 mm 1 mps 760 mmHg 68%
    21:00 +6°C° 0 mm 1 mps 760 mmHg 68%
    22:00 +5°C° 0 mm 1 mps 760 mmHg 67%
    23:00 +5°C° 0 mm 1 mps 760 mmHg 66%

    28 January, Tuesday

    Time Temperature Precipitation Wind Pressure Humidity
    00:00 +5°C° 0 mm 1 mps 760 mmHg 66%
    01:00 +5°C° 0 mm 1 mps 759 mmHg 65%
    02:00 +4°C° 0 mm 1 mps 759 mmHg 65%
    03:00 +4°C° 0 mm 1 mps 759 mmHg 65%
    04:00 +4°C° 0 mm 1 mps 759 mmHg 65%
    05:00 +3°C° 0 mm 1 mps 759 mmHg 66%
    06:00 +2°C° 0 mm 0 mps 759 mmHg 67%
    07:00 +3°C° 0 mm 0 mps 759 mmHg 63%
    08:00 +4°C° 0 mm 0 mps 759 mmHg 59%
    09:00 +5°C° 0 mm 0 mps 758 mmHg 56%
    10:00 +7°C° 0 mm 1 mps 758 mmHg 52%
    11:00 +8°C° 0 mm 1 mps 757 mmHg 48%
    12:00 +9°C° 0 mm 1 mps 757 mmHg 45%
    13:00 +10°C° 0 mm 1 mps 756 mmHg 43%
    14:00 +10°C° 0 mm 1 mps 756 mmHg 42%
    15:00 +11°C° 0 mm 1 mps 755 mmHg 41%
    16:00 +10°C° 0 mm 1 mps 755 mmHg 45%
    17:00 +9°C° 0 mm 1 mps 755 mmHg 48%
    18:00 +8°C° 0 mm 1 mps 755 mmHg 52%
    19:00 +7°C° 0 mm 1 mps 755 mmHg 54%
    20:00 +7°C° 0 mm 1 mps 755 mmHg 56%
    21:00 +6°C° 0 mm 0 mps 755 mmHg 57%
    22:00 +5°C° 0 mm 0 mps 755 mmHg 58%
    23:00 +5°C° 0 mm 0 mps 754 mmHg 59%

    29 January, Wednesday

    Time Temperature Precipitation Wind Pressure Humidity
    00:00 +5°C° 0 mm 0 mps 754 mmHg 60%
    01:00 +4°C° 0 mm 0 mps 754 mmHg 61%
    02:00 +4°C° 0 mm 0 mps 753 mmHg 62%
    03:00 +4°C° 0 mm 0 mps 753 mmHg 62%
    04:00 +4°C° 0 mm 0 mps 753 mmHg 62%
    05:00 +5°C° 0 mm 1 mps 753 mmHg 62%
    06:00 +4°C° 0 mm 1 mps 752 mmHg 62%
    07:00 +5°C° 0 mm 1 mps 752 mmHg 59%
    08:00 +6°C° 0 mm 1 mps 752 mmHg 56%
    09:00 +7°C° 0 mm 1 mps 752 mmHg 52%
    10:00 +8°C° 0 mm 1 mps 752 mmHg 49%
    11:00 +9°C° 0 mm 1 mps 752 mmHg 46%
    12:00 +10°C° 0 mm 1 mps 751 mmHg 42%
    13:00 +10°C° 0 mm 1 mps 751 mmHg 41%
    14:00 +11°C° 0 mm 1 mps 751 mmHg 39%
    15:00 +11°C° 0 mm 1 mps 751 mmHg 38%
    16:00 +10°C° 0 mm 1 mps 751 mmHg 41%
    17:00 +9°C° 0 mm 1 mps 751 mmHg 44%
    18:00 +7°C° 0 mm 0 mps 752 mmHg 47%
    19:00 +7°C° 0 mm 0 mps 752 mmHg 48%
    20:00 +7°C° 0 mm 0 mps 752 mmHg 49%
    21:00 +7°C° 0 mm 0 mps 753 mmHg 50%
    22:00 +7°C° 0 mm 0 mps 753 mmHg 50%
    23:00 +6°C° 0 mm 0 mps 753 mmHg 51%

    30 January, Thursday

    Time Temperature Precipitation Wind Pressure Humidity
    00:00 +6°C° 0 mm 0 mps 753 mmHg 52%
    01:00 +7°C° 0 mm 1 mps 753 mmHg 52%
    02:00 +7°C° 0 mm 1 mps 753 mmHg 52%
    03:00 +5°C° 0 mm 2 mps 753 mmHg 52%
    04:00 +5°C° 0 mm 2 mps 753 mmHg 52%
    05:00 +5°C° 0 mm 2 mps 753 mmHg 53%
    06:00 +5°C° 0 mm 2 mps 753 mmHg 53%
    07:00 +6°C° 0 mm 2 mps 754 mmHg 49%
    08:00 +7°C° 0 mm 2 mps 754 mmHg 46%
    09:00 +9°C° 0 mm 3 mps 754 mmHg 43%
    10:00 +10°C° 0 mm 3 mps 754 mmHg 39%
    11:00 +11°C° 0 mm 3 mps 753 mmHg 36%
    12:00 +13°C° 0 mm 3 mps 753 mmHg 32%
    13:00 +13°C° 0 mm 3 mps 753 mmHg 31%
    14:00 +15°C° 0 mm 2 mps 752 mmHg 30%
    15:00 +15°C° 0 mm 2 mps 752 mmHg 30%
    16:00 +14°C° 0 mm 2 mps 752 mmHg 34%
    17:00 +12°C° 0 mm 2 mps 752 mmHg 38%
    18:00 +10°C° 0 mm 2 mps 752 mmHg 42%
    19:00 +11°C° 0 mm 1 mps 752 mmHg 44%
    20:00 +10°C° 0 mm 1 mps 752 mmHg 46%
    21:00 +10°C° 0 mm 1 mps 752 mmHg 48%
    22:00 +9°C° 0 mm 1 mps 752 mmHg 50%
    23:00 +8°C° 0 mm 0 mps 751 mmHg 51%
    Show more